Hourly Data Report for April 24, 2021

TORONTO CITY
ONTARIO
Current Station Operator: ECCC - MSC

43°40'00.000" N
79°24'00.000" W
112.50 m
6158355
71508
XTO

Download Data

Hourly Data (April 2021)
Hourly Data Report for April 24, 2021
TIME
LST
Temp Definition
°C
Dew Point Definition
°C
Rel Hum Definition
%
Precip. Amount Definition
mm

Wind Dir Definition
10's deg

Wind Spd Definition
km/h
Visibility Definition
km
Stn Press Definition
kPa
Hmdx Definition


Wind Chill Definition


Weather Definition


00:00 11.6 -0.2 44 0.0       100.01     LegendNANA
01:00 11.1 -0.2 46 0.0       100.01     LegendNANA
02:00 10.9 -0.2 46 0.0       100.02     LegendNANA
03:00 11.0 -0.5 45 0.0       100.04     LegendNANA
04:00 9.9 -0.6 48 0.0       100.06     LegendNANA
05:00 8.5 -0.5 53 0.0       100.05     LegendNANA
06:00 8.2 -0.3 55 0.0       100.08     LegendNANA
07:00 10.1 0.1 50 0.0       100.11     LegendNANA
08:00 12.0 -0.2 43 0.0       100.13     LegendNANA
09:00 12.7 1.0 45 0.0       100.16     LegendNANA
10:00 14.3 0.9 40 0.0       100.15     LegendNANA
11:00 14.9 0.4 37 0.0       100.11     LegendNANA
12:00 15.5 -2.4 29 0.0       100.03     LegendNANA
13:00 15.8 0.1 34 0.0       99.95     LegendNANA
14:00 16.0 1.5 37 0.0       99.86     LegendNANA
15:00 15.8 -1.4 31 0.0       99.75     LegendNANA
16:00 15.8 -1.1 31 0.0       99.71     LegendNANA
17:00 15.7 -1.7 30 0.0       99.66     LegendNANA
18:00 15.4 -1.1 32 0.0       99.61     LegendNANA
19:00 14.4 -0.1 37 0.0       99.54     LegendNANA
20:00 14.1 -0.4 37 0.0       99.53     LegendNANA
21:00 13.2 0.1 41 0.0       99.52     LegendNANA
22:00 13.0 -0.4 40 0.0       99.49     LegendNANA
23:00 12.9 0.0 41 0.0       99.47     LegendNANA

Notes on Data Quality.

Legend

  • E = Estimated
  • M = Missing
  • NA = Not Available*
  • [empty] = Indicates an unobserved value
Date modified: